Wind_Speed
27 25 24 21 19 17 16 14 11 12 12 14 14 15 15 14 14 16 13 11 8 6 5 5 8 6 4 3 4 5 7 7 12 13 15 14 14 15 14 15 13 11 11
24 24 24 22 20 19 16 14 14 14 15 16 18 19 17 15 13 9 7 6 8 8 6 7 6 4 5 2 4 8 11 14 12 12 12 14 17 17 18 21 22 19 21
26 27 26 26 24 26 24 22 23 21 19 16 14 14 16 15 12 9 7 9 10 10 9 6 3 2 2 2 3 4 3 5 7 10 13 16 16 15 16 16 19 27 29
29 28 26 25 24 24 24 23 24 24 23 22 22 22 20 18 15 14 13 13 12 10 7 3 2 0 2 4 7 9 12 15 17 16 17 17 19 21 22 21 22 23 22
30 29 27 27 26 24 23 23 22 20 19 18 17 15 13 11 10 8 8 7 6 6 7 5 4 4 5 5 7 9 9 13 18 20 20 21 22 21 20 22 22 22 20
26 25 23 22 21 21 20 20 19 17 15 15 13 11 11 11 11 9 7 5 4 7 7 5 5 5 4 6 7 9 9 13 15 15 14 12 16 21 21 19 19 17 13
24 22 20 19 18 18 18 18 17 17 17 16 12 10 10 9 10 10 8 6 5 8 7 6 5 5 7 9 9 8 11 14 15 18 21 23 24 26 24 22 22 23 24
23 21 19 18 18 17 16 15 14 13 12 12 9 8 10 9 9 9 8 4 5 7 6 7 6 6 5 7 10 13 14 14 17 19 20 22 24 22 19 19 21 25 24
19 18 17 18 19 18 16 15 14 12 11 11 10 8 7 7 6 7 9 5 6 7 6 5 6 8 9 8 10 13 15 17 19 19 18 19 19 21 19 19 19 16 14
20 19 18 17 15 14 12 10 10 8 10 9 10 8 6 6 4 5 6 7 5 6 6 5 5 7 7 9 11 11 12 18 21 16 13 14 16 18 18 17 19 18 16
20 19 17 16 15 12 10 8 8 8 9 10 9 9 9 7 5 4 5 7 6 6 7 9 9 8 11 11 13 14 15 15 13 17 17 18 17 16 15 14 15 11 9
19 18 17 14 13 13 11 11 8 10 10 9 9 10 7 6 5 6 6 7 7 7 8 9 10 11 11 10 10 11 13 14 17 18 18 18 18 19 18 18 17 17 18
21 20 17 15 12 11 10 11 9 7 8 8 7 6 7 7 5 5 6 7 7 8 7 8 9 8 8 8 10 11 12 15 16 15 17 17 17 20 20 19 18 16 17
22 19 16 14 12 10 9 8 8 7 5 5 5 4 3 3 4 6 8 8 8 9 6 9 7 8 9 9 10 12 13 14 16 19 21 22 21 21 20 18 18 18 18
22 21 17 15 13 12 9 6 5 4 1 2 2 2 3 4 4 5 7 8 9 7 7 8 8 8 10 11 11 13 15 16 17 19 17 17 17 18 20 19 17 16 15
25 23 20 18 15 13 11 9 6 4 4 4 4 4 3 2 5 8 6 7 6 7 5 4 5 8 10 12 14 16 16 15 16 18 19 18 18 19 17 17 17 17 17
29 25 22 18 17 15 13 11 10 6 3 2 2 4 3 4 6 8 5 5 5 6 3 4 5 7 9 11 13 16 15 16 17 16 17 17 21 17 16 17 16 14 14
27 25 23 20 17 15 13 11 9 9 8 6 5 2 3 5 8 5 3 4 5 6 5 7 7 7 9 11 12 15 16 17 17 18 17 19 20 19 18 16 17 15 16
29 26 24 20 18 15 13 11 8 7 6 6 6 2 1 4 6 3 4 5 6 7 7 8 7 9 10 11 13 15 15 16 17 19 17 16 20 21 20 20 20 17 18
28 26 23 22 19 16 13 11 9 7 6 7 5 2 2 4 5 4 4 6 8 7 7 9 10 9 11 12 14 15 17 18 20 19 18 21 16 20 20 20 21 20 19
30 27 24 21 19 17 14 12 9 8 7 5 5 3 1 4 4 5 6 6 9 9 10 11 12 12 11 13 14 16 17 19 19 21 20 22 18 23 23 22 23 24 21
30 27 25 22 19 17 14 11 10 8 6 6 7 3 1 3 5 6 7 8 8 10 11 11 13 14 14 15 16 18 19 20 21 22 24 17 24 26 23 23 23 22 21
29 28 24 22 19 16 14 12 10 8 7 6 7 4 2 3 5 7 8 10 10 11 11 13 13 14 15 16 16 18 19 21 22 22 19 28 24 23 24 26 24 22 20
31 29 26 23 20 17 15 13 10 9 10 7 6 6 3 3 5 7 9 10 11 12 14 16 15 14 14 16 17 18 20 21 22 24 25 28 28 26 24 26 26 24 24
31 30 27 25 21 18 14 12 11 11 9 7 6 6 4 2 5 7 9 11 13 13 15 16 15 15 16 17 18 18 20 21 22 24 25 27 27 28 27 27 26 26 25
30 29 27 23 20 17 15 12 12 12 9 7 6 5 3 4 6 6 9 11 13 15 15 15 16 16 17 18 19 21 23 24 25 26 28 29 26 26 26 26 27 26 25
Wind_Direction
105 108 109 111 117 119 121 125 131 142 162 166 173 180 177 168 176 186 187 186 183 173 156 146 146 156 160 257 263 236 210 271 257 281 286 297 291 297 300 300 295 284 314
103 106 105 107 109 106 108 115 120 132 149 147 147 146 150 153 152 162 161 143 149 148 144 166 177 171 161 185 267 280 285 289 281 268 283 290 291 290 291 293 289 293 311
105 103 103 102 103 100 99 102 106 113 125 134 136 128 121 119 119 122 134 124 128 125 144 146 156 184 220 289 331 306 332 349 344 339 336 332 316 303 289 281 287 298 304
112 111 109 108 108 108 112 111 107 108 108 111 112 113 110 111 107 105 102 96 93 86 87 86 94 64 315 305 298 302 310 313 318 322 315 308 305 303 300 302 307 310 311
116 115 113 111 113 113 113 110 108 108 108 109 111 108 106 96 82 90 90 86 85 79 70 65 63 46 28 354 331 335 335 324 314 311 308 307 303 304 302 306 302 304 307
118 116 116 116 116 115 112 108 108 108 108 108 106 98 90 81 69 58 56 70 75 55 40 35 5 356 352 352 349 327 316 325 326 316 310 307 314 313 309 297 295 289 292
123 123 124 122 116 114 113 114 111 113 113 107 102 99 96 90 70 53 39 54 59 50 25 10 360 334 321 322 325 320 316 313 305 300 300 299 298 296 295 286 286 287 283
134 134 131 127 125 124 123 119 119 120 114 111 111 114 108 94 69 56 40 61 57 47 44 44 11 358 343 325 320 307 316 313 306 303 299 300 301 303 299 300 295 285 278
138 137 138 137 132 131 126 120 118 123 111 107 115 113 91 111 82 56 28 63 64 51 37 37 20 357 339 331 312 315 311 305 312 306 297 297 296 307 311 315 313 299 293
147 147 147 149 147 138 136 131 122 119 113 115 105 104 117 125 90 67 45 67 68 40 17 7 7 355 337 330 317 324 335 322 321 325 340 329 321 314 313 310 312 289 279
148 145 146 148 145 146 139 138 133 125 121 116 116 116 120 109 96 90 74 47 29 20 10 9 7 339 322 341 336 335 324 337 343 341 337 333 329 327 325 324 314 317 327
156 153 150 149 147 145 142 137 130 131 125 119 120 114 95 90 85 86 47 19 19 14 359 360 2 348 337 344 355 349 353 349 345 339 334 332 330 326 326 321 315 306 299
158 157 154 151 147 150 144 142 131 128 125 115 114 103 81 96 94 43 24 11 9 3 4 2 348 358 20 14 2 351 354 358 353 338 331 324 322 322 319 315 315 311 305
163 161 160 158 152 152 147 146 143 136 127 124 117 95 77 53 33 37 12 4 10 359 6 23 32 17 20 30 22 19 10 1 349 338 332 328 323 321 319 322 315 316 311
170 168 168 164 161 155 154 156 157 130 112 149 96 45 36 24 16 358 354 13 356 351 353 12 27 35 20 20 20 9 4 1 352 350 336 328 322 318 319 324 317 313 297
173 174 173 171 169 170 165 148 139 114 100 102 74 42 68 15 343 348 10 348 1 5 355 16 12 11 13 360 351 348 347 348 348 340 334 337 334 326 322 312 311 306 294
179 178 175 175 174 171 174 178 171 164 162 156 86 73 41 347 341 345 0 7 357 350 345 352 360 355 348 343 342 335 336 342 341 342 344 329 330 334 328 322 317 308 298
184 182 181 181 181 181 181 176 171 174 186 198 208 280 339 346 337 343 12 358 350 347 321 338 343 340 342 340 337 338 340 336 334 336 335 332 336 330 317 310 310 302 300
183 182 180 178 179 181 180 176 182 181 183 171 165 207 310 339 340 15 12 348 334 327 313 327 333 331 333 337 332 334 335 335 335 334 328 321 338 330 315 310 303 301 300
184 182 181 180 178 180 183 185 183 190 193 189 190 183 325 335 332 321 331 334 338 329 318 319 321 326 316 317 315 319 321 323 324 326 323 312 316 326 307 307 307 297 294
180 176 182 180 183 186 186 187 189 192 196 202 188 173 313 315 320 315 320 326 334 335 332 324 316 318 313 308 311 314 317 319 315 317 307 309 312 321 310 306 301 296 297
181 179 181 183 181 181 184 189 188 192 204 206 188 185 275 311 314 318 321 324 319 314 321 324 319 315 312 309 309 309 311 310 310 310 309 300 313 309 303 297 295 292 289
184 180 180 180 181 179 184 187 191 193 195 200 189 202 225 306 321 328 328 321 311 319 321 322 316 320 314 312 311 306 304 307 309 310 306 313 307 305 303 300 295 291 286
185 184 180 180 181 184 185 189 187 190 182 194 194 200 227 311 323 332 330 325 320 316 322 327 323 319 321 314 312 312 312 312 311 308 312 312 305 303 299 299 294 290 285
185 185 182 181 182 184 185 187 192 196 193 200 207 212 211 289 310 330 334 335 332 325 323 324 326 329 328 325 319 318 317 312 310 313 315 313 306 305 299 299 294 292 290
181 181 182 181 182 184 186 189 190 187 198 205 198 191 214 276 301 322 325 329 334 336 333 334 334 333 333 330 326 325 319 317 315 313 310 308 302 300 297 296 296 291 289
Height
793 797 799 802 808 810 810 812 814 816 822 825 828 830 833 836 840 844 844 845 846 849 851 852 853 854 854 855 856 859 861 863 863 862 861 861 860 859 859 858 858 858 856
801 802 805 808 812 812 815 817 817 821 825 828 830 833 835 838 841 844 844 843 845 848 850 850 851 852 854 856 857 859 860 861 860 858 858 857 856 856 855 854 853 853 851
806 808 811 813 816 815 821 823 823 825 828 832 834 835 836 839 841 844 844 844 845 846 850 852 852 852 853 855 856 857 858 857 858 857 856 855 853 851 850 849 849 848 846
812 815 818 821 823 824 827 829 829 828 831 834 834 836 840 841 844 845 845 845 845 848 850 852 851 852 852 853 854 854 855 855 854 852 853 853 852 849 847 845 844 843 840
817 822 825 825 827 830 832 830 828 831 834 836 835 839 841 844 846 846 844 847 846 847 848 851 850 851 851 852 853 851 850 851 852 850 849 849 846 844 842 842 839 838 836
820 823 826 828 830 833 832 830 832 835 838 839 839 841 845 847 848 847 845 846 846 846 849 849 848 847 848 849 850 851 847 848 848 850 847 845 843 841 839 838 836 834 831
825 828 830 831 831 832 833 836 837 839 841 842 842 844 847 849 847 848 845 845 846 842 847 847 846 844 844 846 848 848 846 845 846 847 844 842 839 837 836 832 830 829 826
827 829 831 832 833 834 836 838 839 842 844 844 846 847 846 848 847 847 846 845 844 843 845 844 846 843 844 847 845 847 844 842 842 841 839 837 835 833 830 828 826 823 821
825 828 830 832 834 837 839 840 842 844 845 844 846 845 845 847 848 847 844 844 845 844 843 844 844 843 843 843 845 842 840 839 838 836 835 833 831 829 826 824 821 821 817
824 827 829 832 835 837 838 840 841 842 842 844 844 845 847 847 848 847 845 843 845 844 843 842 841 841 842 841 839 839 837 835 833 830 829 826 826 823 822 821 819 816 814
823 826 829 831 833 835 837 839 840 841 842 843 845 846 847 847 847 846 844 845 842 841 842 840 840 839 839 838 837 835 834 832 829 828 826 824 822 820 818 817 815 813 811
822 825 828 830 832 834 836 838 840 841 842 844 845 845 845 845 845 844 843 842 840 840 840 839 838 838 837 835 834 833 831 829 827 825 822 820 818 817 815 813 811 809 808
819 822 825 828 831 832 834 836 837 839 840 841 843 844 844 843 842 841 840 840 839 839 839 837 837 836 834 833 832 831 829 827 824 822 820 818 816 814 811 809 807 805 803
817 820 823 826 828 831 832 834 835 836 838 839 840 841 842 842 841 840 839 838 838 837 837 835 834 833 833 832 831 829 826 824 823 821 818 815 813 810 808 806 802 800 798
815 819 821 824 827 830 832 833 834 835 836 838 838 839 840 841 840 839 837 836 836 835 834 833 833 833 831 830 828 827 825 822 821 819 817 814 811 807 804 802 799 797 796
812 816 819 822 825 828 831 832 834 835 836 837 838 838 839 840 839 838 836 835 834 834 833 832 831 830 829 828 827 825 823 821 820 818 815 812 809 805 802 798 796 794 792
808 813 816 820 823 826 829 831 832 835 836 837 838 839 838 838 838 836 834 834 834 834 833 831 830 829 828 827 826 824 822 820 818 815 813 809 806 803 800 797 794 791 787
806 810 813 817 820 824 827 829 831 832 834 835 837 838 838 837 836 834 833 833 833 832 832 830 829 828 827 825 824 822 820 817 815 813 810 807 804 800 797 794 791 788 785
802 806 810 815 819 822 825 827 829 831 832 833 835 836 836 836 835 834 832 832 832 831 830 829 827 826 825 823 822 820 817 815 813 810 807 804 802 798 794 791 787 784 781
799 803 808 812 816 819 822 825 827 829 831 832 832 834 834 834 833 833 831 830 830 829 828 826 825 823 822 821 819 816 814 811 809 806 804 801 797 795 791 787 784 780 776
796 801 805 810 814 817 819 822 824 827 829 830 830 831 833 832 831 831 830 828 828 827 825 824 822 821 819 818 815 813 810 808 806 803 799 796 794 791 787 783 780 776 772
794 798 803 808 811 815 817 820 822 824 826 828 828 829 830 830 829 828 827 826 825 825 823 821 819 817 816 814 812 809 806 804 801 798 795 791 789 786 781 777 774 770 768
792 796 801 806 810 813 816 819 820 822 824 825 826 827 828 828 827 826 825 824 823 822 820 818 816 814 812 810 808 805 802 799 797 794 790 787 783 780 776 772 768 764 761
789 794 798 803 807 810 813 816 818 820 822 823 824 825 825 825 825 824 823 822 820 819 817 814 812 810 808 806 803 800 798 795 792 789 785 781 777 773 769 766 761 757 754
785 790 796 800 804 808 812 814 816 818 820 821 822 823 823 824 824 823 822 820 818 815 813 811 808 806 803 800 798 795 792 790 786 783 779 775 771 767 763 759 755 751 748
783 788 793 798 802 806 809 812 814 816 817 818 819 820 821 821 822 821 820 818 815 812 809 807 804 802 799 796 793 790 787 784 780 777 773 769 764 760 756 752 748 744 740